GW5351 Weather Reports


Display with metric or nautical units.
time (UTC)temp
F
wind
direction
speed
MPH
gust
MPH
rain 1hr
in
rain 24hr
in
rain mn
in
humidity
%
barometer
mb
20260509031222 72 198 0.0 1.0 0.00 0.00 0.00 98 1011.0
20260509030720 72 230 0.0 2.0 0.00 0.00 0.00 98 1011.1
20260509030217 72 232 0.0 3.0 0.00 0.00 0.00 98 1010.9
20260509025713 72 248 2.0 4.0 0.00 0.00 0.00 98 1010.9
20260509025209 72 229 0.0 0.0 0.00 0.00 0.00 98 1010.7
20260509024705 72 218 1.0 2.0 0.00 0.00 0.00 98 1010.5
20260509024201 72 232 0.0 1.0 0.00 0.00 0.00 98 1010.5
20260509023659 72 224 0.0 2.0 0.00 0.00 0.00 98 1010.4
20260509023156 72 213 0.0 1.0 0.00 0.00 0.00 98 1010.5
20260509022651 72 225 0.0 0.0 0.00 0.00 0.00 98 1010.6
20260509022150 72 247 0.0 1.0 0.00 0.00 0.00 98 1010.5
20260509021646 72 203 1.0 2.0 0.00 0.00 0.00 98 1010.4
20260509021143 72 235 1.0 2.0 0.00 0.00 0.00 97 1010.4
20260509020642 72 236 0.0 1.0 0.00 0.00 0.00 97 1010.4
20260509020138 72 194 2.0 3.0 0.00 0.00 0.00 97 1010.3
20260509015637 73 213 0.0 1.0 0.00 0.00 0.00 97 1010.5
20260509015134 73 235 0.0 1.0 0.00 0.00 0.00 97 1010.4
20260509014630 73 208 0.0 1.0 0.00 0.00 0.00 96 1010.4
20260509014127 73 157 1.0 2.0 0.00 0.00 0.00 96 1010.2
20260509013624 73 239 1.0 1.0 0.00 0.00 0.00 96 1010.4
20260509013119 73 245 1.0 2.0 0.00 0.00 0.00 96 1010.6
20260509012617 73 208 1.0 2.0 0.00 0.00 0.00 95 1010.6
20260509012113 73 238 1.0 1.0 0.00 0.00 0.00 95 1010.5
20260509011612 73 215 1.0 4.0 0.00 0.00 0.00 95 1010.2
20260509011108 73 216 1.0 2.0 0.00 0.00 0.00 95 1010.3
20260509010606 74 207 0.0 1.0 0.00 0.00 0.00 94 1010.1
20260509005600 74 238 0.0 2.0 0.00 0.00 0.00 94 1010.1
20260509005055 74 232 1.0 2.0 0.00 0.00 0.00 93 1009.9
20260509004552 74 221 1.0 2.0 0.00 0.00 0.00 93 1009.8
20260509004049 74 221 1.0 3.0 0.00 0.00 0.00 93 1009.9
20260509003548 74 231 1.0 2.0 0.00 0.00 0.00 93 1009.8
20260509003044 75 220 1.0 2.0 0.00 0.00 0.00 92 1009.6
20260509002542 75 218 2.0 4.0 0.00 0.00 0.00 92 1010.0
20260509002039 75 235 1.0 2.0 0.00 0.00 0.00 91 1010.1
20260509001537 75 69 2.0 3.0 0.00 0.00 0.00 91 1010.2
20260509001032 75 218 2.0 3.0 0.00 0.00 0.00 90 1010.2
20260509000531 75 227 1.0 2.0 0.00 0.00 0.00 90 1010.2
20260509000026 76 34 1.0 2.0 0.00 0.00 0.00 89 1010.1
20260508235525 76 238 0.0 2.0 0.00 0.00 0.00 89 1010.2
20260508235020 76 219 1.0 4.0 0.00 0.00 0.00 89 1010.2
20260508234518 76 251 1.0 2.0 0.00 0.00 0.00 89 1010.3
20260508234015 76 83 2.0 4.0 0.00 0.00 0.00 88 1010.2
20260508233515 76 221 1.0 2.0 0.00 0.00 0.00 88 1010.4
20260508233011 76 292 1.0 2.0 0.00 0.00 0.00 88 1010.2
20260508232508 77 205 3.0 6.0 0.00 0.00 0.00 87 1010.4
20260508232005 77 189 1.0 2.0 0.00 0.00 0.00 86 1010.2
20260508231503 77 195 1.0 2.0 0.00 0.00 0.00 87 1010.1
20260508230959 77 147 2.0 4.0 0.00 0.00 0.00 86 1010.2
20260508230456 77 135 2.0 2.0 0.00 0.00 0.00 86 1010.1
20260508225953 78 220 1.0 1.0 0.00 0.00 0.00 85 1010.3
20260508225450 78 168 0.0 2.0 0.00 0.00 0.00 85 1010.1
20260508224947 78 225 2.0 2.0 0.00 0.00 0.00 84 1010.0
20260508224444 78 246 0.0 2.0 0.00 0.00 0.00 84 1010.0
20260508223942 78 171 0.0 1.0 0.00 0.00 0.00 84 1010.2
20260508223440 78 245 1.0 2.0 0.00 0.00 0.00 84 1010.1
20260508222936 78 216 0.0 1.0 0.00 0.00 0.00 84 1010.0
20260508222434 78 222 1.0 2.0 0.00 0.00 0.00 83 1010.1
20260508221930 79 233 1.0 2.0 0.00 0.00 0.00 83 1010.2
20260508221426 79 148 0.0 1.0 0.00 0.00 0.00 82 1010.3
20260508220923 79 163 2.0 3.0 0.00 0.00 0.00 82 1010.1
20260508220419 79 174 0.0 4.0 0.00 0.00 0.00 83 1010.1
20260508215915 78 210 0.0 1.0 0.00 0.00 0.00 83 1010.3
20260508215413 78 221 0.0 1.0 0.00 0.00 0.00 84 1010.4
20260508214909 78 317 1.0 2.0 0.00 0.00 0.00 84 1010.3
20260508214407 78 172 2.0 4.0 0.00 0.00 0.00 84 1010.5
20260508213903 78 211 1.0 2.0 0.00 0.00 0.00 84 1010.3
20260508213400 78 191 0.0 2.0 0.00 0.00 0.00 83 1010.5
20260508212855 79 205 0.0 2.0 0.00 0.00 0.00 82 1010.4
20260508212352 79 211 0.0 3.0 0.00 0.00 0.00 82 1010.4
20260508211848 79 283 1.0 3.0 0.00 0.00 0.00 83 1010.5
20260508211344 79 243 1.0 2.0 0.00 0.00 0.00 82 1010.4
20260508210842 79 221 1.0 3.0 0.00 0.00 0.00 82 1010.5
20260508210338 78 302 1.0 2.0 0.00 0.00 0.00 82 1010.4
20260508205835 78 242 1.0 2.0 0.00 0.00 0.00 82 1010.6
20260508205332 78 247 1.0 3.0 0.00 0.00 0.00 82 1010.7
20260508204827 78 210 1.0 2.0 0.00 0.00 0.00 82 1010.9
20260508204325 78 207 1.0 1.0 0.00 0.00 0.00 82 1010.9
20260508203821 79 148 1.0 2.0 0.00 0.00 0.00 82 1010.8
20260508203317 78 196 1.0 2.0 0.00 0.00 0.00 81 1011.1
20260508202813 78 209 1.0 6.0 0.00 0.00 0.00 83 1011.0
20260508202310 78 263 2.0 2.0 0.00 0.00 0.00 82 1011.0
20260508201808 79 200 1.0 2.0 0.00 0.00 0.00 81 1011.2
20260508201304 79 219 1.0 2.0 0.00 0.00 0.00 81 1011.1
20260508200801 79 195 1.0 2.0 0.00 0.00 0.00 81 1011.1
20260508200257 78 210 1.0 2.0 0.00 0.00 0.00 81 1011.3
20260508195753 78 207 1.0 2.0 0.00 0.00 0.00 83 1011.2
20260508195250 77 233 0.0 1.0 0.00 0.00 0.00 83 1011.2
20260508194746 77 217 0.0 1.0 0.00 0.00 0.00 84 1011.5
20260508194244 77 230 1.0 2.0 0.00 0.00 0.00 84 1011.7
20260508193741 77 223 0.0 3.0 0.00 0.00 0.00 83 1011.4
20260508193237 77 215 0.0 2.0 0.00 0.00 0.00 83 1011.6
20260508192733 77 203 1.0 7.0 0.00 0.00 0.00 83 1011.6
20260508192231 77 124 1.0 3.0 0.00 0.00 0.00 83 1011.6
20260508191728 77 245 0.0 2.0 0.00 0.00 0.00 83 1011.9
20260508191225 77 212 0.0 1.0 0.00 0.00 0.00 82 1011.9
20260508190722 77 195 0.0 2.0 0.00 0.00 0.00 83 1012.1
20260508190218 77 198 0.0 3.0 0.00 0.00 0.00 83 1012.2
20260508185715 77 191 1.0 3.0 0.00 0.00 0.00 83 1012.0
20260508185212 77 259 1.0 2.0 0.00 0.00 0.00 83 1012.1
20260508184709 77 240 0.0 2.0 0.00 0.00 0.00 83 1012.0
20260508184207 77 195 0.0 2.0 0.00 0.00 0.00 82 1012.1
20260508183703 75 173 1.0 2.0 0.00 0.00 0.00 83 1012.2
20260508183159 75 245 1.0 4.0 0.00 0.00 0.00 85 1012.3
20260508182655 76 356 3.0 4.0 0.00 0.00 0.00 83 1012.2
20260508182152 76 187 1.0 6.0 0.00 0.00 0.00 83 1012.3
20260508181648 75 140 4.0 6.0 0.00 0.00 0.00 83 1012.2
20260508181145 76 320 5.0 7.0 0.00 0.00 0.00 81 1012.0
20260508180642 75 234 1.0 4.0 0.00 0.00 0.00 84 1012.4
20260508180139 74 204 1.0 2.0 0.00 0.00 0.00 84 1012.4
20260508175635 74 244 0.0 2.0 0.00 0.00 0.00 85 1012.4
20260508175132 73 199 1.0 3.0 0.00 0.00 0.00 85 1012.5
20260508174629 73 202 1.0 2.0 0.00 0.00 0.00 86 1012.7
20260508174126 73 223 1.0 1.0 0.00 0.00 0.00 86 1013.1
20260508173623 73 233 1.0 2.0 0.00 0.00 0.00 86 1013.2
20260508173119 73 217 0.0 1.0 0.00 0.00 0.00 86 1013.2
20260508172617 73 222 0.0 2.0 0.00 0.00 0.00 86 1013.1
20260508172113 73 238 1.0 1.0 0.00 0.00 0.00 86 1013.2
20260508171609 73 211 0.0 1.0 0.00 0.00 0.00 85 1013.2
20260508171106 73 198 0.0 2.0 0.00 0.00 0.00 85 1013.1
20260508170604 73 165 1.0 1.0 0.00 0.00 0.00 85 1013.0
20260508170101 72 240 0.0 3.0 0.00 0.00 0.00 85 1012.8
20260508165558 73 262 2.0 2.0 0.00 0.00 0.00 85 1013.1
20260508165055 73 228 1.0 1.0 0.00 0.00 0.00 85 1013.2
20260508164551 72 196 1.0 3.0 0.00 0.00 0.00 85 1013.3
20260508164048 72 248 2.0 2.0 0.00 0.00 0.00 85 1013.3
20260508163545 72 356 3.0 4.0 0.00 0.00 0.00 85 1013.4
20260508163042 72 192 2.0 6.0 0.00 0.00 0.00 85 1013.6
20260508162539 72 216 0.0 2.0 0.00 0.00 0.00 85 1013.5
20260508162036 72 293 0.0 2.0 0.00 0.00 0.00 84 1013.3
20260508161533 72 248 0.0 3.0 0.00 0.00 0.00 85 1013.3
20260508161030 71 248 3.0 3.0 0.00 0.00 0.00 85 1013.4
20260508160529 71 342 1.0 2.0 0.00 0.00 0.00 86 1013.3
20260508160025 71 212 2.0 4.0 0.00 0.00 0.00 86 1013.6
20260508155522 71 270 1.0 3.0 0.00 0.00 0.00 86 1013.6
20260508155019 71 78 2.0 6.0 0.00 0.00 0.00 85 1013.8
20260508154516 71 183 2.0 3.0 0.00 0.00 0.00 85 1013.8
20260508154013 70 167 2.0 2.0 0.00 0.00 0.00 86 1013.9
20260508153510 70 231 1.0 1.0 0.00 0.00 0.00 87 1014.1
20260508153006 69 309 2.0 6.0 0.00 0.00 0.00 87 1014.3
20260508152503 69 322 4.0 4.0 0.00 0.00 0.00 88 1014.3
20260508151959 69 294 1.0 3.0 0.00 0.00 0.00 88 1014.2
20260508151456 69 146 2.0 4.0 0.00 0.00 0.00 88 1014.2
20260508150952 68 309 3.0 6.0 0.00 0.00 0.00 89 1014.2
20260508150449 68 228 1.0 4.0 0.00 0.00 0.00 89 1014.4
20260508145944 68 194 1.0 6.0 0.00 0.00 0.00 89 1014.4
20260508145442 67 189 2.0 6.0 0.00 0.00 0.00 90 1014.4
20260508144938 67 293 2.0 2.0 0.00 0.00 0.00 90 1014.5
20260508144436 67 278 4.0 7.0 0.00 0.00 0.00 91 1014.6
20260508143933 67 289 6.0 8.0 0.00 0.00 0.00 91 1014.7
20260508143431 67 188 4.0 7.0 0.00 0.00 0.00 91 1014.6
20260508142927 67 309 4.0 6.0 0.00 0.00 0.00 92 1014.6
20260508142424 66 21 3.0 6.0 0.00 0.00 0.00 92 1014.9
20260508141920 66 346 4.0 6.0 0.00 0.00 0.00 92 1014.7
20260508141417 66 352 4.0 7.0 0.00 0.00 0.00 92 1014.7
20260508140915 66 32 2.0 6.0 0.00 0.00 0.00 92 1014.7
20260508140412 66 12 3.0 6.0 0.00 0.00 0.00 92 1014.6
20260508135907 66 300 2.0 4.0 0.00 0.00 0.00 92 1014.6
20260508135404 66 300 1.0 1.0 0.00 0.00 0.00 93 1014.7
20260508134900 66 214 0.0 1.0 0.00 0.00 0.00 93 1014.8
20260508134357 66 284 1.0 2.0 0.00 0.00 0.00 92 1014.5
20260508133854 66 13 4.0 6.0 0.00 0.00 0.00 92 1014.4
20260508133352 66 246 0.0 2.0 0.00 0.00 0.00 92 1014.6
20260508132848 66 178 3.0 3.0 0.00 0.00 0.00 92 1014.3
20260508132346 66 269 2.0 2.0 0.00 0.00 0.00 92 1014.3
20260508131843 66 229 1.0 3.0 0.00 0.00 0.00 92 1014.1
20260508131338 66 210 0.0 1.0 0.00 0.00 0.00 92 1014.2
20260508130835 66 261 2.0 4.0 0.00 0.00 0.00 92 1014.2
20260508130332 66 258 1.0 2.0 0.00 0.00 0.00 92 1014.2
20260508125828 66 175 1.0 1.0 0.00 0.00 0.00 92 1014.2
20260508125325 66 200 0.0 1.0 0.00 0.00 0.00 92 1014.1
20260508124822 65 211 1.0 2.0 0.00 0.00 0.00 93 1013.8
20260508124319 65 211 0.0 0.0 0.00 0.00 0.00 93 1014.1
20260508123818 65 222 0.0 2.0 0.00 0.00 0.00 93 1014.1
20260508123316 65 240 1.0 1.0 0.00 0.00 0.00 92 1014.5
20260508122812 65 241 1.0 1.0 0.00 0.00 0.00 92 1014.6
20260508122308 65 204 0.0 1.0 0.00 0.00 0.00 92 1014.7
20260508121806 65 255 1.0 4.0 0.00 0.00 0.00 91 1014.5
20260508121304 65 353 3.0 4.0 0.00 0.00 0.00 90 1014.0
20260508120801 66 261 1.0 4.0 0.00 0.00 0.00 90 1013.7
20260508120259 66 158 0.0 2.0 0.00 0.00 0.00 90 1013.9
20260508115757 66 203 1.0 4.0 0.00 0.00 0.00 89 1014.2
20260508115254 66 203 2.0 3.0 0.00 0.00 0.00 89 1014.1
20260508114750 66 192 1.0 2.0 0.00 0.00 0.00 89 1014.2
20260508114247 66 193 0.0 1.0 0.00 0.00 0.00 88 1014.6
20260508113743 66 211 0.0 0.0 0.00 0.00 0.00 88 1014.6
20260508113242 67 211 0.0 0.0 0.00 0.00 0.00 87 1014.4
20260508112738 67 189 0.0 2.0 0.00 0.00 0.00 87 1014.2
20260508112235 67 281 1.0 2.0 0.00 0.00 0.00 87 1014.4
20260508111731 67 238 0.0 0.0 0.00 0.00 0.00 87 1014.5
20260508111229 67 268 2.0 3.0 0.00 0.00 0.00 87 1014.2
20260508110726 67 292 2.0 3.0 0.00 0.00 0.00 87 1014.3
20260508110224 67 249 0.0 1.0 0.00 0.00 0.00 87 1014.2
20260508105723 67 323 2.0 3.0 0.00 0.00 0.00 87 1014.0
20260508105221 67 266 2.0 3.0 0.00 0.00 0.00 87 1013.6
20260508104718 67 302 3.0 3.0 0.00 0.00 0.00 87 1013.8
20260508104215 67 245 3.0 6.0 0.00 0.00 0.00 87 1013.7
20260508103712 67 207 0.0 4.0 0.00 0.00 0.00 87 1013.7
20260508103209 67 213 0.0 2.0 0.00 0.00 0.00 87 1013.9
20260508102706 67 237 0.0 4.0 0.00 0.00 0.00 87 1014.1
20260508102204 67 339 4.0 4.0 0.00 0.00 0.00 87 1014.2
20260508101701 67 262 1.0 2.0 0.00 0.00 0.00 87 1014.2
20260508101159 67 178 1.0 2.0 0.00 0.00 0.00 87 1014.4
20260508100656 67 329 0.0 1.0 0.00 0.00 0.00 87 1014.7
20260508100154 67 329 0.0 2.0 0.00 0.00 0.00 86 1014.6
20260508095650 67 259 0.0 2.0 0.00 0.00 0.00 86 1014.7
20260508095147 67 187 0.0 1.0 0.00 0.00 0.00 86 1014.3
20260508094644 67 186 0.0 2.0 0.00 0.00 0.00 86 1013.6
20260508094141 67 170 0.0 2.0 0.00 0.00 0.00 86 1013.6
20260508093638 67 218 0.0 1.0 0.00 0.00 0.00 86 1014.0
20260508093135 67 219 0.0 4.0 0.00 0.00 0.00 85 1014.2
20260508092633 67 251 1.0 2.0 0.00 0.00 0.00 85 1014.2
20260508092131 67 239 1.0 1.0 0.00 0.00 0.00 85 1014.0
20260508091628 67 192 1.0 3.0 0.00 0.00 0.00 85 1013.9
20260508091125 67 178 1.0 2.0 0.00 0.00 0.00 85 1013.8
20260508090623 67 47 0.0 2.0 0.00 0.00 0.00 85 1013.6
20260508090120 67 216 0.0 2.0 0.00 0.00 0.00 85 1013.7
20260508085616 67 210 0.0 0.0 0.00 0.00 0.00 85 1013.8
20260508085114 67 230 0.0 1.0 0.00 0.00 0.00 84 1013.9
20260508084610 67 218 0.0 1.0 0.00 0.00 0.00 84 1013.9
20260508084108 67 259 1.0 2.0 0.00 0.00 0.00 84 1014.0
20260508083604 67 243 0.0 2.0 0.00 0.00 0.00 84 1014.0
20260508083101 67 173 1.0 2.0 0.00 0.00 0.00 84 1014.3
20260508082557 67 234 0.0 2.0 0.00 0.00 0.00 84 1014.2
20260508082054 67 281 2.0 3.0 0.00 0.00 0.00 84 1014.1
20260508081552 67 223 0.0 0.0 0.00 0.00 0.00 83 1014.1
20260508081047 67 189 1.0 2.0 0.00 0.00 0.00 83 1014.0
20260508080546 67 235 0.0 2.0 0.00 0.00 0.00 83 1013.9
20260508080043 67 156 1.0 1.0 0.00 0.00 0.00 83 1013.9
20260508075539 67 235 1.0 2.0 0.00 0.00 0.00 83 1013.9
20260508075037 67 261 2.0 3.0 0.00 0.00 0.00 83 1014.1
20260508074535 67 199 1.0 2.0 0.00 0.00 0.00 83 1014.1
20260508074031 67 239 0.0 3.0 0.00 0.00 0.00 83 1014.4
20260508073528 67 212 0.0 1.0 0.00 0.00 0.00 83 1014.6
20260508073026 67 238 0.0 1.0 0.00 0.00 0.00 82 1014.7
20260508072522 67 217 0.0 2.0 0.00 0.00 0.00 82 1014.8
20260508072019 67 193 0.0 1.0 0.00 0.00 0.00 82 1014.7
20260508071517 67 344 1.0 4.0 0.00 0.00 0.00 82 1014.6
20260508071014 67 348 3.0 3.0 0.00 0.00 0.00 82 1014.6
20260508070512 67 283 2.0 2.0 0.00 0.00 0.00 82 1014.8
20260508070010 67 217 0.0 1.0 0.00 0.00 0.00 82 1014.7
20260508065508 67 210 0.0 2.0 0.00 0.00 0.00 82 1014.6
20260508065006 67 26 2.0 2.0 0.00 0.00 0.00 82 1014.9
20260508064503 67 205 0.0 1.0 0.00 0.00 0.00 82 1014.7
20260508064000 67 253 2.0 4.0 0.00 0.00 0.00 82 1014.9
20260508063458 67 268 2.0 4.0 0.00 0.00 0.00 82 1015.2
20260508062955 67 324 2.0 3.0 0.00 0.00 0.00 82 1014.8
20260508062453 67 313 1.0 2.0 0.00 0.00 0.00 82 1014.8
20260508061949 67 1 2.0 3.0 0.00 0.00 0.00 83 1015.0
20260508061447 67 290 2.0 2.0 0.00 0.00 0.00 82 1014.9
20260508060943 67 340 2.0 3.0 0.00 0.00 0.00 82 1014.5
20260508060441 67 243 0.0 1.0 0.00 0.00 0.00 82 1014.5
20260508055936 67 253 1.0 2.0 0.00 0.00 0.00 82 1014.4
20260508055434 67 349 2.0 2.0 0.00 0.00 0.00 82 1014.3
20260508054929 67 334 2.0 2.0 0.00 0.00 0.00 81 1014.4
20260508054427 67 221 0.0 1.0 0.00 0.00 0.00 81 1014.8
20260508053924 67 260 1.0 1.0 0.00 0.00 0.00 80 1014.8
20260508053421 67 271 1.0 3.0 0.00 0.00 0.00 80 1014.9
20260508052919 67 159 0.0 1.0 0.00 0.00 0.00 80 1014.5
20260508052416 67 155 1.0 2.0 0.00 0.00 0.00 80 1014.1
20260508051912 68 155 1.0 3.0 0.00 0.00 0.00 80 1014.2
20260508051408 68 155 2.0 3.0 0.00 0.00 0.00 80 1014.3
20260508050904 68 156 0.0 1.0 0.00 0.00 0.00 79 1014.7
20260508050401 68 156 0.0 1.0 0.00 0.00 0.00 79 1014.6
20260508045857 68 156 0.0 2.0 0.00 0.00 0.00 79 1014.5
20260508045355 68 156 0.0 2.0 0.00 0.00 0.00 79 1014.7
20260508044852 68 160 0.0 0.0 0.00 0.00 0.00 79 1014.7
20260508044349 68 160 1.0 2.0 0.00 0.00 0.00 78 1014.7
20260508043845 68 173 0.0 3.0 0.00 0.00 0.00 78 1014.5
20260508043342 68 213 0.0 2.0 0.00 0.00 0.00 78 1014.6
20260508042838 68 265 1.0 2.0 0.00 0.00 0.00 78 1014.6
20260508042337 68 236 0.0 2.0 0.00 0.00 0.00 78 1014.7
20260508041833 68 211 0.0 2.0 0.00 0.00 0.00 78 1014.7
20260508041329 68 305 3.0 4.0 0.00 0.00 0.00 77 1014.7
20260508040826 68 214 0.0 3.0 0.00 0.00 0.00 78 1014.8
20260508040324 68 203 0.0 2.0 0.00 0.00 0.00 77 1014.9
20260508035820 68 154 0.0 1.0 0.00 0.00 0.00 77 1014.8
20260508035318 68 154 0.0 2.0 0.00 0.00 0.00 77 1014.8
20260508034814 68 149 1.0 3.0 0.00 0.00 0.00 77 1014.7
20260508034312 68 156 1.0 2.0 0.00 0.00 0.00 77 1014.5
20260508033809 69 203 0.0 2.0 0.00 0.00 0.00 77 1014.7
20260508033307 68 298 3.0 6.0 0.00 0.00 0.00 76 1014.5
20260508032804 69 218 2.0 4.0 0.00 0.00 0.00 77 1014.3
20260508032305 68 7 2.0 4.0 0.00 0.00 0.00 77 1014.3
20260508031758 69 221 0.0 2.0 0.00 0.00 0.00 78 1014.6